�������l�o���
Date,Time,MP-1(��Sv/h),MP-2(��Sv/h),MP-3(��Sv/h),MP-4(��Sv/h),MP-5(��Sv/h),MP-6(��Sv/h),MP-7(��Sv/h),����,����(m/s),���J
2019/04/28,00:00,0.193,0.183,0.297,0.276,0.269,0.148,0.090,�k�k��,4.8,��
2019/04/28,00:10,0.193,0.182,0.296,0.277,0.270,0.147,0.091,�k�k��,4.4,��
2019/04/28,00:20,0.194,0.181,0.295,0.276,0.269,0.147,0.090,�k�k��,3.9,��
2019/04/28,00:30,0.193,0.182,0.297,0.276,0.269,0.148,0.090,�k�k��,4.1,��
2019/04/28,00:40,0.193,0.181,0.296,0.276,0.270,0.148,0.090,�k�k��,4.0,��
2019/04/28,00:50,0.194,0.183,0.295,0.276,0.269,0.148,0.090,�k�k��,3.7,��
2019/04/28,01:00,0.194,0.181,0.298,0.275,0.269,0.148,0.090,�k�k��,3.1,��
2019/04/28,01:10,0.194,0.182,0.297,0.276,0.269,0.148,0.090,�k�k��,2.6,��
2019/04/28,01:20,0.194,0.181,0.296,0.276,0.268,0.148,0.090,�k�k��,3.8,��
2019/04/28,01:30,0.194,0.182,0.295,0.275,0.269,0.148,0.090,�k�k��,3.2,��
2019/04/28,01:40,0.193,0.182,0.297,0.276,0.268,0.148,0.090,�k�k��,3.4,��
2019/04/28,01:50,0.194,0.181,0.296,0.275,0.269,0.147,0.090,�k�k��,2.1,��
2019/04/28,02:00,0.193,0.181,0.295,0.275,0.268,0.148,0.091,�k,2.5,��
2019/04/28,02:10,0.193,0.183,0.296,0.276,0.267,0.148,0.090,�k,1.8,��
2019/04/28,02:20,0.193,0.181,0.294,0.276,0.268,0.148,0.090,�k,1.7,��
2019/04/28,02:30,0.193,0.181,0.296,0.275,0.266,0.147,0.091,�k�k��,2.2,��
2019/04/28,02:40,0.194,0.182,0.296,0.276,0.269,0.148,0.091,�k��,2.6,��
2019/04/28,02:50,0.193,0.182,0.296,0.276,0.268,0.147,0.090,���k��,2.0,��
2019/04/28,03:00,0.193,0.181,0.296,0.276,0.267,0.147,0.091,���k��,2.2,��
2019/04/28,03:10,0.193,0.181,0.296,0.277,0.267,0.148,0.090,��,2.0,��
2019/04/28,03:20,0.193,0.182,0.297,0.276,0.268,0.148,0.090,���쐼,2.2,��
2019/04/28,03:30,0.193,0.182,0.296,0.276,0.268,0.147,0.091,���쐼,1.8,��
2019/04/28,03:40,0.194,0.181,0.296,0.277,0.268,0.149,0.090,���쐼,2.7,��
2019/04/28,03:50,0.193,0.182,0.297,0.277,0.268,0.147,0.090,���쐼,2.8,��
2019/04/28,04:00,0.193,0.181,0.296,0.276,0.268,0.148,0.091,���쐼,2.5,��
2019/04/28,04:10,0.194,0.182,0.296,0.275,0.269,0.148,0.091,��,3.4,��
2019/04/28,04:20,0.194,0.182,0.297,0.276,0.269,0.148,0.091,��,3.8,��
2019/04/28,04:30,0.194,0.182,0.295,0.276,0.268,0.148,0.091,��,4.1,��
2019/04/28,04:40,0.193,0.181,0.296,0.276,0.268,0.148,0.090,��,4.3,��
2019/04/28,04:50,0.194,0.181,0.298,0.275,0.269,0.148,0.090,���k��,4.3,��
2019/04/28,05:00,0.193,0.181,0.295,0.277,0.269,0.149,0.091,���k��,3.1,��
2019/04/28,05:10,0.194,0.181,0.297,0.276,0.268,0.148,0.090,���k��,2.7,��
2019/04/28,05:20,0.195,0.182,0.296,0.276,0.268,0.148,0.090,���k��,2.1,��
2019/04/28,05:30,0.194,0.181,0.296,0.275,0.270,0.148,0.090,���k��,2.1,��
2019/04/28,05:40,0.194,0.182,0.297,0.275,0.268,0.148,0.090,��,2.1,��
2019/04/28,05:50,0.194,0.182,0.296,0.276,0.267,0.148,0.090,���k��,2.4,��
2019/04/28,06:00,0.193,0.183,0.296,0.275,0.268,0.148,0.090,���k��,3.0,��
2019/04/28,06:10,0.194,0.183,0.296,0.276,0.268,0.148,0.089,���k��,3.2,��
2019/04/28,06:20,0.194,0.181,0.296,0.276,0.268,0.148,0.090,���k��,3.3,��
2019/04/28,06:30,0.194,0.182,0.296,0.275,0.268,0.147,0.090,���k��,2.8,��
2019/04/28,06:40,0.194,0.182,0.295,0.276,0.268,0.147,0.090,���k��,4.1,��
2019/04/28,06:50,0.193,0.182,0.296,0.275,0.268,0.147,0.090,���k��,4.4,��
2019/04/28,07:00,0.194,0.181,0.297,0.276,0.268,0.147,0.090,�k��,3.2,��
2019/04/28,07:10,0.193,0.181,0.294,0.276,0.270,0.148,0.090,�k��,3.6,��
2019/04/28,07:20,0.194,0.181,0.295,0.275,0.268,0.147,0.090,�k��,3.0,��
2019/04/28,07:30,0.193,0.180,0.294,0.274,0.269,0.148,0.090,�k��,3.9,��
2019/04/28,07:40,0.193,0.181,0.294,0.275,0.268,0.147,0.090,�k��,5.2,��
2019/04/28,07:50,0.194,0.182,0.296,0.274,0.268,0.147,0.090,���k��,6.5,��
2019/04/28,08:00,0.193,0.181,0.296,0.275,0.269,0.148,0.090,���k��,5.7,��
2019/04/28,08:10,0.192,0.180,0.295,0.275,0.269,0.148,0.089,�k��,7.4,��
2019/04/28,08:20,0.192,0.182,0.297,0.275,0.267,0.148,0.090,�k��,7.4,��
2019/04/28,08:30,0.193,0.181,0.296,0.275,0.270,0.147,0.089,�k��,7.0,��
2019/04/28,08:40,0.194,0.181,0.296,0.274,0.267,0.147,0.090,�k��,9.0,��
2019/04/28,08:50,0.193,0.181,0.298,0.275,0.270,0.147,0.091,�k��,6.4,��
2019/04/28,09:00,0.194,0.181,0.296,0.274,0.269,0.148,0.090,�k�k��,7.3,��
2019/04/28,09:10,0.193,0.182,0.296,0.276,0.270,0.147,0.091,�k��,7.7,��
2019/04/28,09:20,0.194,0.181,0.296,0.273,0.267,0.148,0.090,�k�k��,6.4,��
2019/04/28,09:30,0.194,0.183,0.296,0.276,0.270,0.147,0.090,�k�k��,3.2,��
2019/04/28,09:40,0.193,0.181,0.296,0.277,0.269,0.147,0.089,���k��,5.0,��
2019/04/28,09:50,0.193,0.184,0.297,0.274,0.272,0.147,0.090,���k��,5.4,��
2019/04/28,10:00,0.193,0.182,0.297,0.277,0.269,0.147,0.090,���k��,5.4,��
2019/04/28,10:10,0.193,0.182,0.297,0.275,0.271,0.147,0.089,���k��,3.4,��
2019/04/28,10:20,0.193,0.183,0.295,0.275,0.269,0.148,0.091,���쓌,4.9,��
2019/04/28,10:30,0.193,0.182,0.297,0.275,0.271,0.147,0.091,���쓌,5.2,��
2019/04/28,10:40,0.194,0.182,0.298,0.277,0.271,0.148,0.091,��,6.2,��
2019/04/28,10:50,0.194,0.181,0.296,0.277,0.272,0.148,0.090,��,4.4,��
2019/04/28,11:00,0.194,0.183,0.296,0.277,0.270,0.149,0.092,���쓌,4.8,��
2019/04/28,11:10,0.193,0.182,0.296,0.277,0.272,0.148,0.090,���쓌,3.2,��
2019/04/28,11:20,0.194,0.183,0.296,0.277,0.271,0.148,0.091,���쓌,3.0,��
2019/04/28,11:30,0.194,0.182,0.296,0.277,0.270,0.148,0.090,���쓌,3.4,��
2019/04/28,11:40,0.194,0.182,0.294,0.276,0.271,0.148,0.090,���쓌,3.4,��
2019/04/28,11:50,0.193,0.182,0.298,0.278,0.272,0.149,0.090,��,3.8,��
2019/04/28,12:00,0.194,0.182,0.296,0.276,0.269,0.149,0.090,��,3.4,��
2019/04/28,12:10,0.194,0.183,0.296,0.278,0.270,0.147,0.091,��,1.8,��
2019/04/28,12:20,0.194,0.182,0.296,0.275,0.270,0.149,0.091,���k��,2.7,��
2019/04/28,12:30,0.194,0.183,0.296,0.277,0.271,0.148,0.090,���k��,1.5,��
2019/04/28,12:40,0.194,0.181,0.297,0.276,0.269,0.149,0.091,���k��,2.5,��
2019/04/28,12:50,0.195,0.183,0.296,0.275,0.272,0.148,0.091,���쓌,2.5,��
2019/04/28,13:00,0.194,0.182,0.297,0.279,0.270,0.149,0.091,���쓌,1.7,��
2019/04/28,13:10,0.194,0.183,0.295,0.276,0.272,0.148,0.090,�쓌,1.8,��
2019/04/28,13:20,0.193,0.182,0.296,0.278,0.270,0.149,0.091,�k��,1.6,��
2019/04/28,13:30,0.194,0.183,0.299,0.278,0.270,0.149,0.090,�k�k��,2.7,��
2019/04/28,13:40,0.194,0.182,0.296,0.276,0.271,0.148,0.091,��,2.0,��
2019/04/28,13:50,0.194,0.184,0.298,0.277,0.269,0.149,0.090,�쓌,2.4,��
2019/04/28,14:00,0.193,0.182,0.297,0.276,0.273,0.149,0.091,���쓌,2.2,��
2019/04/28,14:10,0.195,0.184,0.296,0.277,0.269,0.148,0.090,���쓌,1.5,��
2019/04/28,14:20,0.194,0.182,0.298,0.278,0.272,0.148,0.090,���쓌,2.2,��
2019/04/28,14:30,0.193,0.184,0.296,0.277,0.271,0.149,0.091,�쓌,2.3,��
2019/04/28,14:40,0.195,0.183,0.299,0.279,0.270,0.148,0.091,�쓌,3.1,��
2019/04/28,14:50,0.194,0.183,0.296,0.278,0.271,0.149,0.091,�쓌,1.6,��
2019/04/28,15:00,0.195,0.183,0.298,0.279,0.270,0.149,0.090,��,1.0,��
2019/04/28,15:10,0.195,0.184,0.299,0.279,0.274,0.148,0.090,��,1.8,��
2019/04/28,15:20,0.195,0.184,0.298,0.280,0.270,0.148,0.091,��,1.7,��
2019/04/28,15:30,0.195,0.183,0.299,0.279,0.272,0.149,0.091,��쐼,2.2,��
2019/04/28,15:40,0.195,0.185,0.299,0.280,0.271,0.148,0.090,��,3.0,��
2019/04/28,15:50,0.194,0.182,0.299,0.278,0.273,0.150,0.090,��쐼,2.3,��
2019/04/28,16:00,0.195,0.184,0.301,0.278,0.270,0.149,0.091,��쓌,1.9,��
2019/04/28,16:10,0.194,0.183,0.298,0.279,0.273,0.150,0.090,��쓌,2.5,��
2019/04/28,16:20,0.195,0.183,0.299,0.279,0.271,0.149,0.091,��,2.2,��
2019/04/28,16:30,0.194,0.184,0.300,0.280,0.273,0.150,0.091,��,2.8,��
2019/04/28,16:40,0.196,0.183,0.300,0.279,0.272,0.149,0.091,��,3.1,��
2019/04/28,16:50,0.194,0.184,0.300,0.280,0.272,0.149,0.090,��,3.7,��
2019/04/28,17:00,0.195,0.183,0.299,0.279,0.273,0.149,0.091,��,4.3,��
2019/04/28,17:10,0.194,0.184,0.301,0.278,0.272,0.149,0.091,��,5.1,��
2019/04/28,17:20,0.194,0.184,0.299,0.280,0.274,0.150,0.091,��,4.4,��
2019/04/28,17:30,0.196,0.183,0.300,0.279,0.271,0.149,0.091,��,4.3,��
2019/04/28,17:40,0.195,0.183,0.300,0.280,0.271,0.150,0.090,��,4.2,��
2019/04/28,17:50,0.197,0.185,0.299,0.279,0.270,0.149,0.091,��,5.2,��
2019/04/28,18:00,0.196,0.183,0.299,0.279,0.272,0.149,0.091,��,5.7,��
2019/04/28,18:10,0.196,0.183,0.301,0.279,0.272,0.150,0.090,��,5.3,��
2019/04/28,18:20,0.196,0.184,0.299,0.281,0.271,0.149,0.091,��,5.5,��
2019/04/28,18:30,0.195,0.183,0.300,0.278,0.274,0.149,0.091,��,5.4,��
2019/04/28,18:40,0.195,0.183,0.299,0.281,0.272,0.149,0.091,��쐼,6.2,��
2019/04/28,18:50,0.196,0.184,0.299,0.280,0.272,0.151,0.090,��,6.3,��
2019/04/28,19:00,0.195,0.183,0.301,0.279,0.272,0.150,0.091,��,6.5,��
2019/04/28,19:10,0.196,0.184,0.299,0.281,0.272,0.149,0.091,��쐼,6.2,��
2019/04/28,19:20,0.194,0.184,0.299,0.280,0.272,0.150,0.091,��쐼,5.4,��
2019/04/28,19:30,0.195,0.184,0.301,0.279,0.273,0.150,0.091,��쐼,5.6,��
2019/04/28,19:40,0.196,0.183,0.299,0.280,0.273,0.151,0.091,��,5.2,��
2019/04/28,19:50,0.195,0.184,0.299,0.280,0.273,0.150,0.091,��쐼,5.3,��
2019/04/28,20:00,0.195,0.182,0.300,0.279,0.271,0.149,0.091,��쐼,5.6,��
2019/04/28,20:10,0.196,0.184,0.299,0.280,0.271,0.150,0.091,��쐼,5.7,��
2019/04/28,20:20,0.195,0.184,0.299,0.280,0.273,0.150,0.091,��쐼,4.8,��
2019/04/28,20:30,0.196,0.183,0.299,0.280,0.271,0.149,0.091,��,4.9,��
2019/04/28,20:40,0.196,0.184,0.299,0.280,0.272,0.149,0.091,��쐼,4.8,��
2019/04/28,20:50,0.196,0.184,0.300,0.280,0.272,0.149,0.091,��쐼,4.1,��
2019/04/28,21:00,0.196,0.183,0.300,0.279,0.273,0.151,0.091,��쐼,4.0,��
2019/04/28,21:10,0.196,0.185,0.299,0.281,0.273,0.150,0.092,��쐼,4.0,��
2019/04/28,21:20,0.196,0.184,0.300,0.281,0.272,0.151,0.091,��,3.3,��
2019/04/28,21:30,0.196,0.184,0.301,0.279,0.271,0.150,0.091,��쐼,3.2,��
2019/04/28,21:40,0.196,0.185,0.300,0.280,0.273,0.150,0.092,�쐼,3.9,��
2019/04/28,21:50,0.196,0.185,0.300,0.282,0.271,0.149,0.091,�쐼,4.0,��
2019/04/28,22:00,0.196,0.183,0.301,0.280,0.271,0.150,0.091,�쐼,4.2,��
2019/04/28,22:10,0.196,0.185,0.300,0.280,0.273,0.150,0.093,�쐼,4.9,��
2019/04/28,22:20,0.196,0.184,0.299,0.281,0.271,0.150,0.092,��쐼,5.1,��
2019/04/28,22:30,0.196,0.185,0.301,0.280,0.272,0.150,0.092,��쐼,5.7,��
2019/04/28,22:40,0.195,0.184,0.301,0.280,0.273,0.150,0.091,��쐼,5.7,��
2019/04/28,22:50,0.196,0.184,0.300,0.280,0.271,0.149,0.092,��쐼,5.5,��
2019/04/28,23:00,0.196,0.184,0.299,0.281,0.271,0.150,0.091,��쐼,4.2,��
2019/04/28,23:10,0.196,0.184,0.302,0.280,0.273,0.150,0.091,��,3.3,��
2019/04/28,23:20,0.196,0.184,0.300,0.281,0.272,0.150,0.092,��쐼,4.8,��
2019/04/28,23:30,0.196,0.184,0.300,0.280,0.271,0.150,0.091,��쐼,3.9,��
2019/04/28,23:40,0.195,0.184,0.301,0.280,0.272,0.151,0.091,��쐼,4.4,��
2019/04/28,23:50,0.196,0.184,0.300,0.282,0.271,0.150,0.091,��쐼,3.9,��
